EHI
0 0 0 0 0 0 0 0 0 0 0 0 0 0 0 0 0 0 0 0 0 0 0 0 0 0 0 0 0 0 0 0 0 0 0 0 0 0 0 0 0 0 0
0 0 0 0 0 0 0 0 0 0 0 0 0 0 0 0 0 0 0 0 0 0 0 0 0 0 0 0 0 0 0 0 0 0 0 0 0 0 0 0 0 0 0
0 0 0 0 0 0 0 0 0 0 0 0 0 0 0 0 0 0 0 0 0 0 0 0 0 0 0 0 0 0 0 0 0 0 0 0 0 0 0 0 0 0 0
0 0 0 0 0 0 0 0 0 0 0 0 0 0 0 0 0 0 0 0 0 0 0 0 0 0 0 0 0 0 0 0 0 0 0 0 0 0 0 0 0 0 0
0 0 0 0 0 0 0 0 0 0 0 0 0 0 0 0 0 0 0 0 0 0 0 0 0 0 0 0 0 0 0 0 0 0 0 0 0 0 0 0 0 0 0
0 0 0 0 0 0 0 0 0 0 0 0 0 0 0 0 0 0 0 0 0 0 0 0 0 0 0 0 0 0 0 0 0 0 0 0 0 0 0 0 0 0 0
0 0 0 0 0 0 0 0 0 0 0 0 0 0 0 0 0 0 0 0 0 0 0 0 0 0 0 0 0 0 0 0 0 0 0 0 0 0 0 0 0 0 0
1 0 0 0 0 0 0 0 0 0 0 0 0 0 0 0 0 0 0 0 0 0 0 0 0 0 0 0 0 0 0 0 0 0 0 0 0 0 0 0 0 0 0
2 1 0 0 0 0 0 0 0 0 0 0 0 0 0 0 0 0 0 0 0 0 0 0 0 0 0 0 0 0 0 0 0 0 0 0 0 0 0 0 0 0 0
3 1 0 0 0 0 0 0 0 0 0 0 0 0 0 0 0 0 0 0 0 0 0 0 0 0 0 0 0 0 0 0 0 0 0 0 0 0 0 0 0 0 0
1 1 1 0 0 0 0 0 0 0 0 0 0 0 0 0 0 0 0 0 0 0 0 0 0 0 0 0 0 0 0 0 0 0 0 0 0 0 0 0 0 0 0
1 1 2 1 0 0 0 0 0 0 0 0 0 0 0 0 0 0 0 0 0 0 0 0 0 0 0 0 0 0 0 0 0 0 0 0 0 0 0 0 0 0 0
1 1 1 1 0 0 0 0 0 0 0 0 0 0 0 0 0 0 0 0 0 0 0 0 0 0 0 0 0 0 0 0 0 0 0 0 0 0 0 0 0 0 0
1 1 1 0 0 0 0 0 0 0 0 0 0 0 0 0 0 0 0 0 0 0 0 0 0 0 0 0 0 0 0 0 0 0 0 0 0 0 0 0 0 0 0
1 1 1 0 0 0 0 0 0 0 0 0 0 0 0 0 0 0 0 0 0 0 0 0 0 0 0 0 0 0 0 0 0 0 0 0 0 0 0 0 0 0 0
0 0 0 0 0 0 0 0 0 0 0 0 0 0 0 0 0 0 0 0 0 0 0 0 0 0 0 0 0 0 0 0 0 0 0 0 0 0 0 0 0 0 0
0 0 0 0 0 0 0 0 0 0 0 0 0 0 0 0 0 0 0 0 0 0 0 0 0 0 0 0 0 0 0 0 0 0 0 0 0 0 0 0 0 0 0
0 0 0 0 0 0 0 0 0 0 0 0 0 0 0 0 0 0 0 0 0 0 0 0 0 0 0 0 0 0 0 0 0 0 0 0 0 0 0 0 0 0 0
0 0 0 0 0 0 0 0 0 0 0 0 0 0 0 0 0 0 0 0 0 0 0 0 0 0 0 0 0 0 0 0 0 0 0 0 0 0 0 0 0 0 0
0 0 0 0 0 0 0 0 0 0 0 0 0 0 0 0 0 0 0 0 0 0 0 0 0 0 0 0 0 0 0 0 0 0 0 0 0 0 0 0 0 0 0
0 0 0 0 0 0 0 0 0 0 0 0 0 0 0 0 0 0 0 0 0 0 0 0 0 0 0 0 0 0 0 0 0 0 0 0 0 0 0 0 0 0 0
0 0 0 0 0 0 0 0 0 0 0 0 0 0 0 0 0 0 0 0 0 0 0 0 0 0 0 0 0 0 0 0 0 0 0 0 0 0 0 0 0 0 0
1 0 0 0 0 0 0 0 0 0 0 0 0 0 0 0 0 0 0 0 0 0 0 0 0 0 0 0 0 0 0 0 0 0 0 0 0 0 0 0 0 0 0
2 1 0 0 0 0 0 0 0 0 0 0 0 0 0 0 0 0 0 0 0 0 0 0 0 0 0 0 0 0 0 0 0 0 0 0 0 0 0 0 0 0 0
2 1 0 0 0 0 0 0 0 0 0 0 0 0 0 0 0 0 0 0 0 0 0 0 0 0 0 0 0 0 0 0 0 0 0 0 0 0 0 0 0 0 0
3 2 1 0 0 0 0 0 0 0 0 0 0 0 0 0 0 0 0 0 0 0 0 0 0 0 0 0 0 0 0 0 0 0 0 0 0 0 0 0 0 0 0
Wind_Speed
3 2 1 1 1 1 2 1 1 1 1 2 2 3 4 4 3 3 2 7 7 6 7 8 8 8 8 8 8 8 7 7 7 7 7 7 8 7 7 6 6 6 5
3 3 2 2 1 1 1 1 1 1 1 1 1 2 3 3 3 3 2 3 6 6 7 7 7 8 8 8 8 8 8 8 7 7 7 6 6 7 7 6 6 5 5
4 3 3 2 2 2 2 2 2 2 1 1 1 2 2 2 3 3 3 2 2 5 6 7 7 7 8 8 8 7 7 8 8 7 7 6 6 6 6 6 6 6 5
5 4 3 3 2 2 2 2 2 2 1 1 1 1 1 2 3 3 2 2 2 2 4 7 7 7 8 9 9 9 8 8 8 8 7 7 7 7 6 6 6 6 6
6 4 3 3 3 3 2 2 2 2 2 2 1 1 0 1 2 2 3 3 3 3 2 4 5 6 8 9 10 10 9 9 9 8 8 8 8 8 7 7 7 7 7
6 5 3 3 4 3 2 2 2 2 2 2 2 2 1 0 1 2 3 3 3 4 4 3 3 4 7 7 8 9 10 10 10 9 9 9 10 9 9 9 8 8 8
6 5 4 4 4 3 4 4 3 3 2 2 2 2 2 1 1 2 2 2 3 4 4 4 3 3 3 5 7 8 9 10 10 10 10 10 10 10 10 10 10 10 10
6 6 6 5 4 4 4 3 3 3 2 1 2 2 1 2 2 1 1 3 3 3 4 5 4 4 4 3 4 7 8 9 10 10 10 11 10 10 10 10 10 10 11
6 6 6 5 5 4 4 4 4 4 3 1 1 3 3 2 2 2 1 2 2 2 3 3 5 5 5 4 4 6 8 8 9 10 10 10 10 10 10 10 11 11 11
5 5 6 6 5 4 4 4 4 3 4 2 1 1 1 3 2 1 2 1 2 3 3 3 4 5 5 4 5 7 8 8 8 9 9 9 8 9 9 10 11 11 11
5 5 6 5 5 4 4 4 4 4 3 3 3 2 2 1 1 2 1 2 1 2 2 3 3 3 4 5 4 7 8 8 8 8 7 7 7 7 8 9 10 10 10
3 4 5 5 5 4 5 5 4 5 3 3 2 2 3 3 2 2 2 1 1 2 1 2 2 3 3 4 6 8 9 8 8 8 7 6 6 6 6 7 7 8 8
3 5 5 5 5 4 5 5 4 4 4 4 3 2 2 2 2 3 2 1 1 1 2 1 1 2 2 3 4 7 7 7 7 7 6 6 5 5 5 5 6 7 7
5 6 6 6 6 6 5 5 4 4 3 4 4 3 2 2 2 3 3 3 1 1 2 2 1 1 2 1 3 4 3 5 5 5 5 4 4 4 4 4 5 5 6
4 6 6 6 6 6 6 5 3 3 4 3 3 3 2 1 1 2 2 3 3 2 1 2 2 3 2 1 1 0 0 0 1 2 2 2 2 3 3 4 5 5 6
5 6 6 6 6 6 6 5 4 4 4 3 2 3 2 1 1 1 1 1 2 3 2 1 1 2 3 3 4 3 3 5 5 4 3 2 2 2 2 3 4 4 5
6 6 6 6 6 6 6 5 5 5 5 3 3 3 2 2 2 1 1 2 1 2 2 1 1 2 3 4 4 4 4 4 4 7 6 6 5 5 4 4 4 5 5
5 6 6 6 5 5 5 6 6 6 5 5 4 3 3 2 2 1 1 2 1 1 2 2 1 2 3 3 4 4 4 4 4 9 9 9 8 7 7 7 6 5 5
5 5 6 6 5 5 5 5 5 5 5 4 4 4 3 4 3 2 2 2 1 1 1 2 1 2 2 3 3 4 5 4 4 6 7 8 8 7 7 7 7 6 6
5 5 5 5 5 4 4 4 4 5 5 4 4 4 3 3 3 3 3 2 2 3 3 2 2 2 2 3 3 3 3 3 3 4 5 5 7 7 8 7 7 8 7
5 5 6 5 4 4 3 5 5 6 6 7 7 6 7 8 8 6 4 3 3 3 3 3 2 2 2 3 3 2 2 2 2 3 3 3 3 4 5 6 7 9 8
6 6 6 6 5 4 6 8 8 8 7 8 8 7 8 10 13 14 14 12 8 5 4 3 2 3 2 2 2 2 2 2 2 3 3 2 2 3 4 3 6 7 8
7 7 7 7 7 8 11 12 13 9 9 8 7 6 6 7 8 8 12 14 14 14 10 5 5 3 3 3 2 2 2 2 2 3 3 2 2 3 4 4 6 7 8
7 7 7 8 9 10 13 14 15 11 10 9 8 7 8 7 7 8 9 10 10 10 9 7 6 5 5 4 3 2 2 2 1 2 3 2 3 4 5 4 5 8 9
8 8 7 8 9 10 12 13 13 9 10 10 9 9 9 8 11 11 9 9 9 8 11 14 13 12 13 12 8 4 4 3 2 2 3 3 3 5 4 3 4 9 11
9 9 9 8 9 9 11 13 12 8 10 9 8 9 13 12 12 11 8 8 8 6 6 8 9 10 9 11 12 7 4 3 2 2 3 4 3 4 5 3 4 6 7
Wind_Direction
160 155 147 137 130 122 126 123 116 125 131 132 145 150 153 155 154 148 160 175 171 174 173 169 168 166 166 166 165 164 163 162 157 155 157 159 159 159 159 158 158 155 154
166 165 166 166 165 162 157 151 153 142 139 135 144 153 154 151 155 155 161 180 184 184 185 182 178 178 180 179 179 179 177 174 169 165 166 167 169 173 172 173 172 171 171
173 171 175 183 185 168 150 126 113 106 121 130 138 147 148 156 163 170 172 177 191 200 198 195 192 190 192 190 190 190 187 183 179 179 180 181 182 184 184 183 186 185 184
176 170 178 188 172 152 143 133 123 112 110 131 146 154 143 159 175 179 182 189 198 213 217 211 205 202 203 201 200 200 196 193 190 190 192 194 195 195 196 197 198 197 198
179 172 178 179 161 147 150 153 125 133 144 150 160 137 133 196 197 197 206 208 210 219 224 229 224 217 219 218 213 209 205 202 202 203 205 206 206 206 206 209 209 209 210
177 168 172 172 158 147 149 144 132 110 116 132 115 84 31 272 225 223 227 220 217 223 224 228 230 237 237 237 228 222 216 211 211 211 214 215 216 213 212 216 217 218 219
175 169 171 165 162 161 165 153 128 119 104 107 91 53 15 2 257 239 234 230 227 226 222 223 222 226 241 245 241 231 226 221 218 216 220 222 222 220 217 219 222 224 225
176 177 171 170 165 151 150 152 137 127 113 120 126 103 28 347 328 269 234 230 232 223 229 230 225 223 231 235 241 243 236 233 231 225 223 224 225 225 223 224 226 227 229
180 175 174 165 162 161 165 167 156 146 146 134 135 143 149 219 292 317 284 249 235 227 234 235 233 231 228 229 237 247 247 242 240 237 231 228 227 228 229 231 233 233 233
176 172 168 163 164 165 165 170 159 150 145 153 139 108 139 154 157 304 321 303 261 237 237 236 235 234 230 226 229 235 243 246 246 244 238 234 232 231 232 233 236 239 240
175 172 166 163 166 167 168 160 152 156 153 157 160 148 127 96 119 149 268 313 309 262 244 238 238 240 234 229 231 236 239 242 247 248 245 242 240 238 237 239 243 247 247
175 174 167 167 167 165 166 164 158 162 161 153 154 156 157 158 178 169 188 246 285 301 290 256 241 243 238 230 238 239 238 237 241 245 248 251 250 249 249 251 255 258 259
181 183 175 171 168 168 164 155 154 160 163 160 163 167 169 172 160 158 158 172 250 312 322 311 286 271 256 236 244 248 247 241 239 241 243 248 255 260 262 263 264 267 271
185 175 174 174 169 164 161 154 150 159 159 162 167 160 160 173 173 170 162 150 129 345 340 320 327 327 306 271 259 250 257 250 241 240 243 251 262 271 276 277 277 277 277
175 170 169 169 166 162 158 153 153 156 153 157 158 161 162 168 169 173 163 158 152 173 255 311 324 342 342 342 339 41 246 322 247 244 247 254 267 278 282 282 282 281 278
170 164 166 166 161 158 157 152 147 148 146 147 151 150 148 142 134 139 150 148 149 161 194 261 322 346 358 29 45 54 55 56 55 62 62 51 32 7 340 320 310 302 296
163 165 167 163 160 158 156 154 156 156 155 153 154 158 161 146 134 131 125 125 134 148 173 209 3 3 24 35 35 46 52 55 57 58 61 57 49 43 37 26 16 1 344
163 161 157 157 161 162 162 166 168 164 162 164 166 156 159 146 136 135 134 134 146 171 171 175 50 25 32 30 38 44 42 51 60 58 62 59 55 50 44 39 31 18 3
151 147 144 149 155 158 163 166 163 158 156 157 154 152 153 148 144 130 121 119 115 108 116 136 101 42 34 27 34 40 40 27 45 49 58 55 45 43 40 37 30 22 11
142 141 139 143 146 148 148 147 143 136 125 112 107 110 109 120 122 114 96 85 90 85 83 95 84 49 34 20 39 33 28 20 24 28 31 39 40 39 33 29 29 24 16
123 123 121 117 117 124 135 134 127 120 110 98 86 82 84 89 91 89 89 84 89 90 86 82 70 54 35 24 22 5 12 357 25 18 1 16 20 22 19 18 25 24 19
100 101 104 104 94 87 101 110 112 106 101 98 92 81 75 73 79 78 76 73 76 84 89 87 75 65 36 15 5 6 5 4 357 10 348 345 7 6 3 8 13 17 16
100 94 91 92 87 81 92 98 98 98 94 90 88 84 79 72 72 78 73 68 63 62 68 89 83 64 41 11 5 16 16 359 335 344 332 317 343 341 343 351 354 6 9
100 94 90 90 88 82 89 96 98 94 89 82 78 81 85 74 72 81 81 74 66 58 59 65 74 62 51 34 28 21 350 329 303 356 357 322 335 327 327 323 339 2 2
96 89 87 89 91 86 86 94 97 95 89 80 74 71 79 77 74 80 84 81 72 63 64 67 67 61 56 51 44 39 25 13 351 354 8 338 328 322 310 304 332 348 344
101 96 85 81 87 89 87 90 95 99 96 89 76 69 71 77 72 74 81 85 79 61 58 56 52 46 44 42 41 41 28 14 351 333 3 341 330 333 314 305 320 324 322